Time_in_sec,gx,gy,gz
1314276480.85618949,0.02331938,-0.01887245,-0.99954992
1314276480.90757847,0.02423911,-0.01875826,-0.99953019
1314276480.95640683,0.02408896,-0.01864132,-0.99953600
1314276481.00442123,0.02388556,-0.01844835,-0.99954447
1314276481.05948210,0.02372388,-0.01845669,-0.99954816
1314276481.10443473,0.02446097,-0.01854818,-0.99952870
1314276481.15548277,0.02470848,-0.01866479,-0.99952044
1314276481.20847130,0.02487557,-0.01895759,-0.99951079
1314276481.25645733,0.02487509,-0.01878862,-0.99951399
1314276481.29659700,0.02483894,-0.01883781,-0.99951396
1314276481.35644317,0.02481974,-0.01888360,-0.99951358
1314276481.40848660,0.02528124,-0.01921421,-0.99949571
1314276481.45610094,0.02530182,-0.01935478,-0.99949248
1314276481.50843191,0.02540015,-0.01941585,-0.99948880
1314276481.55548382,0.02538727,-0.01952782,-0.99948694
1314276481.60746646,0.02551939,-0.01965903,-0.99948101
1314276481.65592861,0.02580300,-0.01952781,-0.99947630
1314276481.70757651,0.02557126,-0.01957407,-0.99948135
1314276481.75645328,0.02554421,-0.01926030,-0.99948814
1314276481.79903579,0.02559915,-0.01930122,-0.99948594
1314276481.85544419,0.02547030,-0.01937264,-0.99948785
1314276481.90857911,0.02551501,-0.01878656,-0.99949790
1314276481.95593619,0.02548560,-0.01882899,-0.99949785
1314276482.00847745,0.02540290,-0.01865308,-0.99950325
1314276482.05576634,0.02548978,-0.01863670,-0.99950135
1314276482.10746193,0.02474458,-0.01766303,-0.99953775
1314276482.15642214,0.02478396,-0.01773484,-0.99953551
1314276482.20905757,0.02475727,-0.01748014,-0.99954066
1314276482.25646448,0.02452199,-0.01738199,-0.99954817
1314276482.29644418,0.02454111,-0.01749663,-0.99954570
1314276482.35646653,0.02430971,-0.01749050,-0.99955146
1314276482.40845180,0.02416384,-0.01638075,-0.99957380
1314276482.45644569,0.02428306,-0.01622180,-0.99957350
1314276482.50762272,0.02439478,-0.01609918,-0.99957276
1314276482.55644989,0.02449740,-0.01621590,-0.99956837
1314276482.60763383,0.02505473,-0.01535560,-0.99956814
1314276482.65550542,0.02495968,-0.01515894,-0.99957352
1314276482.70676661,0.02483837,-0.01530513,-0.99957431
1314276482.75551701,0.02489125,-0.01525696,-0.99957373
1314276482.79559112,0.02497913,-0.01529622,-0.99957094
1314276482.85644913,0.02485947,-0.01519333,-0.99957549
1314276482.90457630,0.02532120,-0.01501960,-0.99956653
1314276482.95645428,0.02527266,-0.01475823,-0.99957165
1314276483.00844479,0.02518053,-0.01494030,-0.99957127
1314276483.05552888,0.02509070,-0.01515361,-0.99957032
1314276483.10848856,0.02569642,-0.01545374,-0.99955034
1314276483.15650129,0.02576308,-0.01542924,-0.99954900
1314276483.20847893,0.02604524,-0.01558408,-0.99953928
1314276483.25637579,0.02628099,-0.01565471,-0.99953201
1314276483.29640841,0.02632419,-0.01565591,-0.99953085
1314276483.35642648,0.02625151,-0.01578646,-0.99953071
1314276483.40484452,0.02611679,-0.01523022,-0.99954287
1314276483.45793176,0.02589823,-0.01518024,-0.99954932
1314276483.50850654,0.02568328,-0.01525883,-0.99955367
1314276483.55550385,0.02579014,-0.01546794,-0.99954770
1314276483.60858607,0.02541737,-0.01581156,-0.99955188
1314276483.65647316,0.02555766,-0.01613084,-0.99954320
1314276483.71158051,0.02543469,-0.01577604,-0.99955200
1314276483.75645685,0.02521409,-0.01584932,-0.99955643
1314276483.79627800,0.02543763,-0.01586477,-0.99955052
1314276483.85635424,0.02537170,-0.01579937,-0.99955323
1314276483.90445757,0.02523664,-0.01603138,-0.99955295
1314276483.95647860,0.02512333,-0.01600034,-0.99955631
1314276484.00413799,0.02495863,-0.01599230,-0.99956056
1314276484.05644083,0.02498804,-0.01603127,-0.99955920
1314276484.10756564,0.02526152,-0.01675984,-0.99954038
1314276484.15645504,0.02543513,-0.01673820,-0.99953634
1314276484.20408678,0.02532876,-0.01675850,-0.99953870
1314276484.25620890,0.02561538,-0.01681033,-0.99953052
1314276484.29644632,0.02553447,-0.01665474,-0.99953520
1314276484.35556650,0.02539874,-0.01660759,-0.99953944
1314276484.40853691,0.02557384,-0.01704266,-0.99952765
1314276484.45649648,0.02534137,-0.01689160,-0.99953614
1314276484.50759268,0.02532841,-0.01710584,-0.99953282
1314276484.55641723,0.02556706,-0.01695389,-0.99952933
1314276484.60802388,0.02661529,-0.01828662,-0.99947848
1314276484.65662193,0.02662313,-0.01847692,-0.99947477
1314276484.70922518,0.02663560,-0.01855597,-0.99947297
1314276484.75661421,0.02655223,-0.01878610,-0.99947089
1314276484.79956889,0.02678036,-0.01853645,-0.99946947
1314276484.85587072,0.02697383,-0.01858707,-0.99946332
1314276484.90749717,0.02754776,-0.01905718,-0.99943882
1314276484.95644188,0.02768639,-0.01910847,-0.99943400
1314276485.01146674,0.02773817,-0.01924450,-0.99942996
1314276485.05585670,0.02771020,-0.01937729,-0.99942817
1314276485.10844684,0.02761364,-0.01901349,-0.99943783
1314276485.15654683,0.02777187,-0.01908825,-0.99943202
1314276485.20847654,0.02757294,-0.01924703,-0.99943448
1314276485.25580692,0.02782606,-0.01890311,-0.99943403
1314276485.29659152,0.02778330,-0.01901688,-0.99943306
1314276485.35655928,0.02785833,-0.01895677,-0.99943212
1314276485.40748525,0.02818586,-0.02045537,-0.99939338
1314276485.45547271,0.02801014,-0.02039874,-0.99939948
1314276485.50753856,0.02808730,-0.02027522,-0.99939983
1314276485.55586576,0.02823797,-0.02046306,-0.99939176
1314276485.60849857,0.02974855,-0.02205588,-0.99931405
1314276485.65651917,0.02992620,-0.02209428,-0.99930789
1314276485.70847702,0.02999263,-0.02242149,-0.99929861
1314276485.75642753,0.02992243,-0.02237655,-0.99930173
1314276485.80756903,0.03000245,-0.02251215,-0.99929628
1314276485.85646915,0.02994963,-0.02250834,-0.99929795
1314276485.90848947,0.03133387,-0.02357499,-0.99923091
1314276485.95549870,0.03127355,-0.02363094,-0.99923148
1314276486.00849485,0.03117923,-0.02371073,-0.99923253
1314276486.05566549,0.03117874,-0.02371784,-0.99923238
1314276486.10752869,0.03226122,-0.02519565,-0.99916185
1314276486.15642834,0.03239946,-0.02507218,-0.99916048
1314276486.20716190,0.03238840,-0.02527630,-0.99915569
1314276486.25691080,0.03253815,-0.02514553,-0.99915413
1314276486.30046296,0.03241353,-0.02516367,-0.99915772
1314276486.35646439,0.03238084,-0.02507717,-0.99916096
1314276486.40847492,0.03328679,-0.02558118,-0.99911841
1314276486.45643592,0.03328967,-0.02552283,-0.99911980
1314276486.50448895,0.03326097,-0.02555174,-0.99912002
1314276486.55644631,0.03347972,-0.02556212,-0.99911245
1314276486.60849762,0.03308264,-0.02514982,-0.99913614
1314276486.65583897,0.03385223,-0.02618828,-0.99908368
1314276486.70445013,0.03392744,-0.02632762,-0.99907747
1314276486.75547934,0.03393415,-0.02644714,-0.99907408
1314276486.79558229,0.03393567,-0.02655438,-0.99907119
1314276486.85627484,0.03385504,-0.02650546,-0.99907522
1314276486.90749478,0.03413166,-0.02745433,-0.99904018
1314276486.95641327,0.03415955,-0.02752846,-0.99903719
1314276487.00827360,0.03410961,-0.02732382,-0.99904452
1314276487.05624223,0.03417270,-0.02716962,-0.99904656
1314276487.10447454,0.03440207,-0.02740676,-0.99903222
1314276487.15604877,0.03437949,-0.02777422,-0.99902284
1314276487.20852375,0.03446185,-0.02790439,-0.99901638
1314276487.25644541,0.03459647,-0.02794660,-0.99901055
1314276487.30058599,0.03458127,-0.02781295,-0.99901480
1314276487.35643029,0.03435555,-0.02766986,-0.99902656
1314276487.40796995,0.03443240,-0.02745347,-0.99902989
1314276487.45596099,0.03439049,-0.02740290,-0.99903272
1314276487.50616479,0.03430456,-0.02742784,-0.99903499
1314276487.55543590,0.03421108,-0.02773950,-0.99902959
1314276487.60903144,0.03402293,-0.02753281,-0.99904173
1314276487.65585470,0.03398329,-0.02659324,-0.99906853
1314276487.70744133,0.03377120,-0.02659850,-0.99907559
1314276487.75648332,0.03388050,-0.02628190,-0.99908026
1314276487.79943728,0.03402595,-0.02624255,-0.99907636
1314276487.85638523,0.03393105,-0.02612352,-0.99908270
1314276487.90847945,0.03398578,-0.02621227,-0.99907852
1314276487.95651126,0.03411019,-0.02619387,-0.99907476
1314276488.00848269,0.03393667,-0.02646687,-0.99907347
1314276488.05546522,0.03391495,-0.02625582,-0.99907978
1314276488.10749912,0.03430605,-0.02617113,-0.99906865
1314276488.15643144,0.03417763,-0.02596217,-0.99907850
1314276488.20845771,0.03419501,-0.02602605,-0.99907625
1314276488.25555897,0.03416637,-0.02629644,-0.99907015
1314276488.29778266,0.03439869,-0.02633604,-0.99906113
1314276488.35552788,0.03439742,-0.02652329,-0.99905622
1314276488.40772200,0.03434967,-0.02642657,-0.99906043
1314276488.45542598,0.03415650,-0.02611604,-0.99907522
1314276488.50749207,0.03417751,-0.02604762,-0.99907628
1314276488.55668402,0.03407624,-0.02607876,-0.99907893
1314276488.60861754,0.03383102,-0.02583652,-0.99909356
1314276488.65593910,0.03349300,-0.02597508,-0.99910135
1314276488.70846725,0.03348270,-0.02613950,-0.99909741
1314276488.75644541,0.03355550,-0.02614550,-0.99909481
1314276488.79559398,0.03344296,-0.02603739,-0.99910141
1314276488.85647082,0.03327974,-0.02615445,-0.99910380
1314276488.90847397,0.03237559,-0.02545920,-0.99915146
1314276488.95644498,0.03218241,-0.02518834,-0.99916457
1314276489.00684118,0.03217275,-0.02531277,-0.99916174
1314276489.05647826,0.03217311,-0.02505680,-0.99916818
1314276489.10448074,0.03193455,-0.02474049,-0.99918371
1314276489.15648413,0.03131810,-0.02391874,-0.99922323
1314276489.20850515,0.03121011,-0.02404007,-0.99922370
1314276489.25649071,0.03135565,-0.02405594,-0.99921876
1314276489.29551220,0.03136785,-0.02421395,-0.99921456
1314276489.35771632,0.03142831,-0.02419669,-0.99921308
1314276489.40746236,0.03116904,-0.02465519,-0.99920999
1314276489.45556521,0.03121431,-0.02460172,-0.99920990
1314276489.50520229,0.03109365,-0.02483473,-0.99920790
1314276489.55567050,0.03090729,-0.02505133,-0.99920827
1314276489.60847020,0.03087542,-0.02491761,-0.99921260
1314276489.65641809,0.03109747,-0.02574074,-0.99918485
1314276489.70773435,0.03130120,-0.02566075,-0.99918054
1314276489.75648737,0.03123517,-0.02577429,-0.99917969
1314276489.80432630,0.03156094,-0.02567060,-0.99917212
1314276489.85549593,0.03134179,-0.02588868,-0.99917339
1314276489.90446424,0.03149804,-0.02538769,-0.99918133
1314276489.95692182,0.03154739,-0.02529904,-0.99918203
1314276490.00847650,0.03142951,-0.02525957,-0.99918674
1314276490.05635738,0.03135803,-0.02481169,-0.99920021
1314276490.10815215,0.03099196,-0.02500118,-0.99920691
1314276490.15644312,0.03099040,-0.02498107,-0.99920746
1314276490.20447469,0.03079084,-0.02499189,-0.99921336
1314276490.25648212,0.03076716,-0.02489622,-0.99921647
1314276490.29643798,0.03100726,-0.02492413,-0.99920836
1314276490.35649204,0.03113418,-0.02477897,-0.99920802
1314276490.40420580,0.03160021,-0.02524249,-0.99918179
1314276490.45632243,0.03167579,-0.02543578,-0.99917449
1314276490.50858140,0.03173785,-0.02557087,-0.99916907
1314276490.55640745,0.03161756,-0.02574336,-0.99916846
1314276490.60858202,0.03134051,-0.02539981,-0.99918598
1314276490.65659761,0.03266167,-0.02640728,-0.99911755
1314276490.70845938,0.03261033,-0.02617057,-0.99912545
1314276490.75545621,0.03239139,-0.02639057,-0.99912679
1314276490.81147313,0.03226632,-0.02634556,-0.99913202
1314276490.85648298,0.03233640,-0.02630688,-0.99913077
1314276490.90859318,0.03254784,-0.02634047,-0.99912302
1314276490.95641804,0.03236054,-0.02642804,-0.99912680
1314276491.00858974,0.03209079,-0.02647613,-0.99913422
1314276491.05557323,0.03197202,-0.02647377,-0.99913809
1314276491.10992336,0.03173809,-0.02652372,-0.99914423
1314276491.15645075,0.03142707,-0.02676978,-0.99914750
1314276491.21245790,0.03143591,-0.02662331,-0.99915113
1314276491.25659442,0.03133754,-0.02641801,-0.99915967
1314276491.29659152,0.03145870,-0.02647039,-0.99915448
1314276491.35644770,0.03165138,-0.02650712,-0.99914742
1314276491.40847969,0.03210030,-0.02765494,-0.99910198
1314276491.45555282,0.03218553,-0.02735070,-0.99910762
1314276491.50848126,0.03219878,-0.02730972,-0.99910831
1314276491.55561471,0.03237883,-0.02732284,-0.99910213
1314276491.60847902,0.03221217,-0.02705621,-0.99911478
1314276491.65558362,0.03271660,-0.02948144,-0.99902976
1314276491.70758891,0.03304084,-0.02959289,-0.99901580
1314276491.75642347,0.03280193,-0.02940176,-0.99902931
1314276491.80860949,0.03280092,-0.02932252,-0.99903168
1314276491.85650849,0.03282242,-0.02903380,-0.99903940
1314276491.90845799,0.03304677,-0.03154452,-0.99895588
1314276491.95654130,0.03273947,-0.03138439,-0.99897104
1314276492.00748491,0.03270959,-0.03166081,-0.99896330
1314276492.05547071,0.03289976,-0.03196250,-0.99894745
1314276492.10455751,0.03264673,-0.03208369,-0.99895186
1314276492.15643525,0.03253745,-0.03165555,-0.99896909
1314276492.20444942,0.03265045,-0.03157103,-0.99896808
1314276492.25548482,0.03254069,-0.03149454,-0.99897407
1314276492.29661608,0.03230358,-0.03150257,-0.99898151
1314276492.35584068,0.03230590,-0.03148107,-0.99898212
1314276492.40847754,0.03228214,-0.03029823,-0.99901946
1314276492.45629025,0.03222585,-0.03013322,-0.99902627
1314276492.50748420,0.03223897,-0.03006643,-0.99902786
1314276492.55644608,0.03234022,-0.03002988,-0.99902568
1314276492.59545994,0.03237290,-0.02985050,-0.99903000
1314276492.65543413,0.03307415,-0.02933537,-0.99902229
1314276492.70442796,0.03288509,-0.02938343,-0.99902712
1314276492.75615215,0.03288514,-0.02941032,-0.99902633
1314276492.79616785,0.03278242,-0.02925969,-0.99903413
1314276492.85545278,0.03278603,-0.02918855,-0.99903609
1314276492.90749192,0.03283844,-0.02906621,-0.99903793
1314276492.95615220,0.03275244,-0.02916435,-0.99903790
1314276493.00443435,0.03268686,-0.02921986,-0.99903842
1314276493.05543208,0.03269144,-0.02900069,-0.99904466
1314276493.10444283,0.03282257,-0.02837835,-0.99905823
1314276493.15546799,0.03280324,-0.02822193,-0.99906330
1314276493.20848203,0.03291048,-0.02825983,-0.99905870
1314276493.25602365,0.03300168,-0.02840890,-0.99905146
1314276493.29660177,0.03322975,-0.02813911,-0.99905154
1314276493.35641813,0.03335601,-0.02821416,-0.99904521
1314276493.40757108,0.03312482,-0.02696637,-0.99908736
1314276493.45603442,0.03301243,-0.02679414,-0.99909572
1314276493.50863409,0.03300703,-0.02720676,-0.99908475
1314276493.55593896,0.03300369,-0.02720364,-0.99908494
1314276493.60791421,0.03302664,-0.02725661,-0.99908274
1314276493.65646243,0.03287072,-0.02744240,-0.99908279
1314276493.70760036,0.03280189,-0.02753811,-0.99908242
1314276493.75644827,0.03305050,-0.02758615,-0.99907290
1314276493.79587984,0.03306822,-0.02762353,-0.99907129
1314276493.85592127,0.03324936,-0.02790867,-0.99905735
1314276493.90845704,0.03260441,-0.02778617,-0.99908202
1314276493.95646262,0.03294871,-0.02773465,-0.99907216
1314276494.00746036,0.03306224,-0.02788134,-0.99906432
1314276494.05554223,0.03334022,-0.02772202,-0.99905952
1314276494.10757446,0.03319593,-0.02793986,-0.99905825
1314276494.15646791,0.03314577,-0.02785943,-0.99906217
1314276494.20858002,0.03317546,-0.02792108,-0.99905946
1314276494.25554681,0.03317673,-0.02797640,-0.99905787
1314276494.30509472,0.03296148,-0.02799847,-0.99906438
1314276494.35558128,0.03286818,-0.02836305,-0.99905717
1314276494.40748024,0.03241350,-0.02848312,-0.99906860
1314276494.45560360,0.03240675,-0.02866170,-0.99906372
1314276494.50461531,0.03229277,-0.02867897,-0.99906691
1314276494.55643964,0.03217062,-0.02878205,-0.99906789
1314276494.59547544,0.03203309,-0.02879101,-0.99907205
1314276494.65653658,0.03212005,-0.02884908,-0.99906758
1314276494.70845747,0.03199911,-0.02877595,-0.99907357
1314276494.75659776,0.03217166,-0.02853667,-0.99907489
1314276494.79651284,0.03210785,-0.02845578,-0.99907925
1314276494.85644293,0.03212106,-0.02839836,-0.99908046
1314276494.90858507,0.03215571,-0.02791068,-0.99909309
1314276494.95645332,0.03213582,-0.02815007,-0.99908701
1314276495.00443649,0.03236428,-0.02814221,-0.99907986
1314276495.05556965,0.03229203,-0.02837353,-0.99907566
1314276495.11053348,0.03231395,-0.02852265,-0.99907070
1314276495.15648627,0.03254015,-0.02785350,-0.99908224
1314276495.20849228,0.03245172,-0.02792214,-0.99908320
1314276495.25647426,0.03246254,-0.02802546,-0.99907996
1314276495.29550314,0.03238434,-0.02816657,-0.99907852
1314276495.35642624,0.03254422,-0.02820441,-0.99907226
1314276495.39632273,0.03192257,-0.02715450,-0.99912141
1314276495.45646238,0.03198943,-0.02701728,-0.99912299
1314276495.50448942,0.03233675,-0.02674946,-0.99911901
1314276495.55646944,0.03232747,-0.02681151,-0.99911765
1314276495.61147165,0.03228060,-0.02700227,-0.99911403
1314276495.65620995,0.03173732,-0.02682100,-0.99913632
1314276495.70832634,0.03154725,-0.02697454,-0.99913820
1314276495.75642610,0.03151463,-0.02671964,-0.99914608
1314276495.79618955,0.03161529,-0.02688989,-0.99913833
1314276495.85632920,0.03177481,-0.02673718,-0.99913737
1314276495.90442848,0.03157472,-0.02647039,-0.99915082
1314276495.95989704,0.03160988,-0.02646067,-0.99914996
1314276496.00847149,0.03161934,-0.02668515,-0.99914369
1314276496.05606985,0.03147662,-0.02674609,-0.99914657
1314276496.10859203,0.03147373,-0.02688813,-0.99914285
1314276496.15657330,0.03117999,-0.02646209,-0.99916343
1314276496.20835304,0.03098747,-0.02654858,-0.99916713
1314276496.25618339,0.03088596,-0.02661104,-0.99916861
1314276496.29746389,0.03084521,-0.02671890,-0.99916699
1314276496.35556984,0.03055036,-0.02666646,-0.99917745
1314276496.40848041,0.03087184,-0.02603356,-0.99918426
1314276496.45651078,0.03085856,-0.02599204,-0.99918575
1314276496.50796819,0.03076378,-0.02607636,-0.99918648
1314276496.55642486,0.03081196,-0.02615340,-0.99918298
1314276496.60747719,0.03084198,-0.02623183,-0.99918000
1314276496.65677309,0.03087772,-0.02704396,-0.99915724
1314276496.70844865,0.03104586,-0.02704605,-0.99915197
1314276496.75660110,0.03093709,-0.02664124,-0.99916622
1314276496.79955769,0.03078867,-0.02672163,-0.99916866
1314276496.85589123,0.03063594,-0.02666385,-0.99917490
1314276496.90749693,0.03084238,-0.02661010,-0.99916998
1314276496.95644045,0.03066663,-0.02644913,-0.99917966
1314276497.00848794,0.03040750,-0.02640600,-0.99918872
1314276497.05556583,0.03068623,-0.02652079,-0.99917716
1314276497.10844302,0.03063219,-0.02654515,-0.99917817
1314276497.15557885,0.02932865,-0.02494542,-0.99925850
1314276497.20750737,0.02906364,-0.02481920,-0.99926939
1314276497.25646973,0.02912212,-0.02478237,-0.99926860
1314276497.29659534,0.02900246,-0.02472248,-0.99927356
1314276497.35563731,0.02904217,-0.02491987,-0.99926751
1314276497.40747118,0.02924456,-0.02500501,-0.99925948
1314276497.45565891,0.02953164,-0.02506408,-0.99924956
1314276497.50866413,0.02966677,-0.02503117,-0.99924638
1314276497.55563188,0.02972885,-0.02478422,-0.99925069
1314276497.60844874,0.02978976,-0.02500693,-0.99924333
1314276497.65563393,0.02972756,-0.02513909,-0.99924186
1314276497.70747757,0.02979896,-0.02517588,-0.99923881
1314276497.75644660,0.02983641,-0.02538169,-0.99923248
1314276497.79547811,0.02961017,-0.02513452,-0.99924546
1314276497.85548091,0.02959981,-0.02527282,-0.99924228
1314276497.91245413,0.02925112,-0.02505222,-0.99925810
1314276497.95548391,0.02919142,-0.02500036,-0.99926115
1314276498.00844407,0.02936904,-0.02517525,-0.99925155
1314276498.05547905,0.02939988,-0.02520843,-0.99924981
1314276498.10845828,0.02988114,-0.02610822,-0.99921243
1314276498.15644217,0.02986281,-0.02639794,-0.99920537
1314276498.20750833,0.02979604,-0.02621136,-0.99921227
1314276498.25652933,0.02986551,-0.02610536,-0.99921297
1314276498.29786992,0.02993062,-0.02626223,-0.99920691
1314276498.35544634,0.03008967,-0.02651445,-0.99919547
1314276498.40846992,0.03014875,-0.02697204,-0.99918145
1314276498.45647335,0.03025947,-0.02704513,-0.99917612
1314276498.50840116,0.03017508,-0.02695607,-0.99918108
1314276498.55645204,0.03006886,-0.02693653,-0.99918481
1314276498.60839343,0.02994287,-0.02781170,-0.99916462
1314276498.65692663,0.03026181,-0.02775854,-0.99915649
1314276498.70843530,0.03017153,-0.02763965,-0.99916251
1314276498.75642610,0.03026368,-0.02779028,-0.99915555
